When you browse on this site, cookies collect data to enhance your experience and personalize the content and advertising you see.
Visit our Privacy Policy to learn more. By continuing to use the site, you agree to this use of cookies and data.
  • In Romania
  • List of Countries
  • For 7 days
  • Water Temperature
  • Weather Map
  • Weather Widgets
  • user-avatar
    Login

    Hourly Weather Yulara

    Today, 19 September, Thursday

    Time Temperature Precipitation Wind Pressure Humidity
    00:00 +20°C° 0 mm 3 mps 718 mmHg 17%
    01:00 +20°C° 0 mm 3 mps 717 mmHg 18%
    02:00 +19°C° 0 mm 4 mps 717 mmHg 20%
    03:00 +19°C° 0 mm 4 mps 716 mmHg 21%
    04:00 +18°C° 0 mm 4 mps 717 mmHg 23%
    05:00 +18°C° 0 mm 3 mps 717 mmHg 24%
    06:00 +18°C° 0 mm 3 mps 717 mmHg 25%
    07:00 +22°C° 0 mm 5 mps 717 mmHg 21%
    08:00 +27°C° 0 mm 7 mps 718 mmHg 17%
    09:00 +32°C° 0 mm 8 mps 719 mmHg 13%
    10:00 +34°C° 0 mm 9 mps 718 mmHg 11%
    11:00 +37°C° 0 mm 9 mps 717 mmHg 10%
    12:00 +38°C° 0 mm 10 mps 716 mmHg 9%
    13:00 +38°C° 0 mm 10 mps 716 mmHg 9%
    14:00 +39°C° 0 mm 10 mps 715 mmHg 9%
    15:00 +39°C° 0 mm 11 mps 714 mmHg 9%
    16:00 +37°C° 0 mm 9 mps 714 mmHg 10%
    17:00 +34°C° 0 mm 8 mps 714 mmHg 11%
    18:00 +33°C° 0 mm 6 mps 713 mmHg 11%
    19:00 +32°C° 0 mm 6 mps 714 mmHg 13%
    20:00 +30°C° 0 mm 7 mps 714 mmHg 14%
    21:00 +29°C° 0 mm 7 mps 714 mmHg 15%
    22:00 +28°C° 0 mm 7 mps 714 mmHg 17%
    23:00 +27°C° 0 mm 7 mps 714 mmHg 18%

    Tomorrow, 20 September, Friday

    Time Temperature Precipitation Wind Pressure Humidity
    00:00 +26°C° 0 mm 7 mps 714 mmHg 20%
    01:00 +22°C° 0 mm 8 mps 714 mmHg 32%
    02:00 +18°C° 0 mm 9 mps 713 mmHg 44%
    03:00 +16°C° 0 mm 10 mps 713 mmHg 56%
    04:00 +15°C° 0 mm 9 mps 714 mmHg 62%
    05:00 +13°C° 0 mm 8 mps 714 mmHg 69%
    06:00 +12°C° 0 mm 7 mps 715 mmHg 76%
    07:00 +14°C° 0 mm 7 mps 716 mmHg 69%
    08:00 +16°C° 0 mm 8 mps 717 mmHg 62%
    09:00 +17°C° 0 mm 9 mps 718 mmHg 54%
    10:00 +18°C° 0 mm 8 mps 718 mmHg 49%
    11:00 +21°C° 0 mm 7 mps 718 mmHg 43%
    12:00 +22°C° 0 mm 7 mps 718 mmHg 38%
    13:00 +22°C° 0 mm 7 mps 718 mmHg 35%
    14:00 +22°C° 0 mm 6 mps 717 mmHg 33%
    15:00 +23°C° 0 mm 6 mps 717 mmHg 30%
    16:00 +22°C° 0 mm 6 mps 717 mmHg 26%
    17:00 +21°C° 0 mm 6 mps 717 mmHg 22%
    18:00 +20°C° 0 mm 5 mps 718 mmHg 19%
    19:00 +16°C° 0 mm 6 mps 718 mmHg 20%
    20:00 +14°C° 0 mm 6 mps 719 mmHg 22%
    21:00 +11°C° 0 mm 7 mps 719 mmHg 24%
    22:00 +10°C° 0 mm 7 mps 719 mmHg 27%
    23:00 +9°C° 0 mm 6 mps 720 mmHg 29%

    Day after tomorrow, 21 September, Saturday

    Time Temperature Precipitation Wind Pressure Humidity
    00:00 +8°C° 0 mm 6 mps 720 mmHg 32%
    01:00 +7°C° 0 mm 6 mps 720 mmHg 36%
    02:00 +5°C° 0 mm 6 mps 720 mmHg 39%
    03:00 +5°C° 0 mm 6 mps 720 mmHg 43%
    04:00 +5°C° 0 mm 5 mps 721 mmHg 48%
    05:00 +3°C° 0 mm 5 mps 721 mmHg 52%
    06:00 +3°C° 0 mm 4 mps 722 mmHg 57%
    07:00 +6°C° 0 mm 5 mps 722 mmHg 50%
    08:00 +8°C° 0 mm 5 mps 723 mmHg 43%
    09:00 +11°C° 0 mm 6 mps 723 mmHg 36%
    10:00 +14°C° 0 mm 6 mps 723 mmHg 31%
    11:00 +16°C° 0 mm 5 mps 722 mmHg 26%
    12:00 +17°C° 0 mm 5 mps 722 mmHg 21%
    13:00 +19°C° 0 mm 4 mps 721 mmHg 19%
    14:00 +20°C° 0 mm 3 mps 721 mmHg 17%
    15:00 +21°C° 0 mm 2 mps 720 mmHg 15%
    16:00 +20°C° 0 mm 2 mps 720 mmHg 17%
    17:00 +18°C° 0 mm 2 mps 720 mmHg 19%
    18:00 +17°C° 0 mm 2 mps 720 mmHg 21%
    19:00 +16°C° 0 mm 3 mps 721 mmHg 21%
    20:00 +14°C° 0 mm 4 mps 721 mmHg 22%
    21:00 +13°C° 0 mm 5 mps 722 mmHg 22%
    22:00 +12°C° 0 mm 5 mps 722 mmHg 25%
    23:00 +10°C° 0 mm 5 mps 722 mmHg 27%

    22 September, Sunday

    Time Temperature Precipitation Wind Pressure Humidity
    00:00 +9°C° 0 mm 5 mps 722 mmHg 29%
    01:00 +8°C° 0 mm 5 mps 722 mmHg 32%
    02:00 +7°C° 0 mm 5 mps 722 mmHg 34%
    03:00 +6°C° 0 mm 4 mps 722 mmHg 36%
    04:00 +6°C° 0 mm 5 mps 723 mmHg 38%
    05:00 +6°C° 0 mm 5 mps 723 mmHg 39%
    06:00 +6°C° 0 mm 5 mps 723 mmHg 41%
    07:00 +9°C° 0 mm 6 mps 724 mmHg 35%
    08:00 +12°C° 0 mm 7 mps 724 mmHg 30%
    09:00 +16°C° 0 mm 8 mps 724 mmHg 25%
    10:00 +18°C° 0 mm 8 mps 724 mmHg 23%
    11:00 +21°C° 0 mm 7 mps 724 mmHg 21%
    12:00 +23°C° 0 mm 6 mps 724 mmHg 18%
    13:00 +24°C° 0 mm 6 mps 723 mmHg 18%
    14:00 +24°C° 0 mm 6 mps 722 mmHg 18%
    15:00 +26°C° 0 mm 5 mps 722 mmHg 18%
    16:00 +25°C° 0 mm 5 mps 722 mmHg 20%
    17:00 +23°C° 0 mm 4 mps 723 mmHg 21%
    18:00 +23°C° 0 mm 4 mps 723 mmHg 23%
    19:00 +21°C° 0 mm 4 mps 723 mmHg 29%
    20:00 +19°C° 0 mm 4 mps 723 mmHg 35%
    21:00 +17°C° 0 mm 4 mps 724 mmHg 41%
    22:00 +17°C° 0 mm 4 mps 724 mmHg 48%
    23:00 +15°C° 0 mm 4 mps 724 mmHg 54%

    23 September, Monday

    Time Temperature Precipitation Wind Pressure Humidity
    00:00 +15°C° 0 mm 4 mps 724 mmHg 60%
    01:00 +14°C° 0.1 mm 4 mps 724 mmHg 66%
    02:00 +13°C° 0.1 mm 4 mps 724 mmHg 73%
    03:00 +13°C° 0.1 mm 4 mps 723 mmHg 79%
    04:00 +12°C° 0.1 mm 4 mps 724 mmHg 81%
    05:00 +12°C° 0.1 mm 4 mps 724 mmHg 84%
    06:00 +11°C° 0.1 mm 4 mps 724 mmHg 86%
    07:00 +12°C° 0 mm 5 mps 724 mmHg 80%
    08:00 +13°C° 0 mm 6 mps 725 mmHg 74%
    09:00 +14°C° 0 mm 7 mps 725 mmHg 67%
    10:00 +14°C° 0.1 mm 7 mps 725 mmHg 66%
    11:00 +15°C° 0.1 mm 6 mps 725 mmHg 64%
    12:00 +16°C° 0.1 mm 6 mps 724 mmHg 63%
    13:00 +17°C° 0 mm 5 mps 724 mmHg 59%
    14:00 +19°C° 0 mm 5 mps 723 mmHg 55%
    15:00 +19°C° 0 mm 5 mps 722 mmHg 51%
    16:00 +17°C° 0 mm 5 mps 722 mmHg 56%
    17:00 +16°C° 0 mm 6 mps 723 mmHg 61%
    18:00 +15°C° 0 mm 7 mps 723 mmHg 66%
    19:00 +14°C° 0 mm 6 mps 724 mmHg 73%
    20:00 +13°C° 0 mm 5 mps 724 mmHg 80%
    21:00 +11°C° 0 mm 4 mps 725 mmHg 87%
    22:00 +11°C° 0 mm 4 mps 725 mmHg 89%
    23:00 +10°C° 0 mm 4 mps 724 mmHg 91%

    24 September, Tuesday

    Time Temperature Precipitation Wind Pressure Humidity
    00:00 +10°C° 0 mm 3 mps 724 mmHg 92%
    01:00 +9°C° 0 mm 3 mps 724 mmHg 93%
    02:00 +8°C° 0 mm 4 mps 723 mmHg 94%
    03:00 +8°C° 0 mm 4 mps 723 mmHg 95%
    04:00 +8°C° 0 mm 3 mps 723 mmHg 95%
    05:00 +8°C° 0 mm 3 mps 723 mmHg 95%
    06:00 +8°C° 0 mm 3 mps 723 mmHg 95%
    07:00 +11°C° 0 mm 4 mps 723 mmHg 78%
    08:00 +14°C° 0 mm 6 mps 724 mmHg 62%
    09:00 +17°C° 0 mm 7 mps 724 mmHg 45%
    10:00 +18°C° 0 mm 7 mps 724 mmHg 39%
    11:00 +21°C° 0 mm 7 mps 723 mmHg 32%
    12:00 +23°C° 0 mm 7 mps 723 mmHg 25%
    13:00 +24°C° 0 mm 7 mps 722 mmHg 24%
    14:00 +24°C° 0 mm 6 mps 722 mmHg 22%
    15:00 +26°C° 0 mm 6 mps 721 mmHg 21%
    16:00 +24°C° 0 mm 6 mps 721 mmHg 24%
    17:00 +22°C° 0 mm 5 mps 721 mmHg 27%
    18:00 +21°C° 0 mm 5 mps 721 mmHg 30%
    19:00 +19°C° 0 mm 4 mps 722 mmHg 37%
    20:00 +17°C° 0 mm 4 mps 722 mmHg 43%
    21:00 +15°C° 0 mm 4 mps 722 mmHg 50%
    22:00 +14°C° 0 mm 4 mps 722 mmHg 52%
    23:00 +13°C° 0 mm 3 mps 722 mmHg 55%
    Show more